Location: Unspecified
(0.0000°N, 0.0000°E)
Time: 19:34:36
(UTC+02:00)

Cosmos 1954 Rocket - Visible Passes

Search period start: 26 May 2018 00:00
Search period end: 05 June 2018 00:00
Orbit: 753 x 781 km, 74.0° (Epoch: 25 May)

Date Brightness Start Highest point End Pass type
(mag) Time Alt. Az. Time Alt. Az. Time Alt. Az.
26 May 4.1 06:26:38 45° WSW 06:27:44 53° WNW 06:32:50 10° N visible
27 May 4.2 05:50:51 70° ENE 05:50:51 70° ENE 05:55:40 10° NNE visible
28 May 5.9 05:15:00 27° ENE 05:15:00 27° ENE 05:17:53 10° NE visible
28 May 5.8 06:55:17 13° WNW 06:55:17 13° WNW 06:57:18 10° NW visible
29 May 7.0 04:39:03 10° ENE 04:39:03 10° ENE 04:39:10 10° ENE visible
29 May 5.4 06:19:21 23° NW 06:19:21 23° NW 06:22:00 10° NNW visible
30 May 5.7 05:43:20 24° N 05:43:20 24° N 05:45:26 10° N visible
31 May 6.5 05:07:15 16° NNE 05:07:15 16° NNE 05:08:12 10° NNE visible
